When you browse on this site, cookies collect data to enhance your experience and personalize the content and advertising you see.
Visit our Privacy Policy to learn more. By continuing to use the site, you agree to this use of cookies and data.
  • In Hungary
  • List of Countries
  • For 7 days
  • Water Temperature
  • Satellite Maps
  • Weather Map
  • News
  • Weather Widgets
  • user-avatar
    Login

    Hourly Weather Gateshead

    Today, 19 December, Wednesday

    Time Temperature Precipitation Wind Pressure Humidity
    00:00 +5°C° 0 mm 4 mps 736 mmHg 91%
    01:00 +5°C° 0 mm 4 mps 736 mmHg 91%
    02:00 +4°C° 0 mm 4 mps 736 mmHg 90%
    03:00 +3°C° 0 mm 5 mps 736 mmHg 90%
    04:00 +4°C° 0 mm 4 mps 736 mmHg 90%
    05:00 +4°C° 0 mm 4 mps 736 mmHg 90%
    06:00 +4°C° 0 mm 4 mps 737 mmHg 90%
    07:00 +4°C° 0 mm 4 mps 737 mmHg 90%
    08:00 +4°C° 0 mm 4 mps 737 mmHg 90%
    09:00 +4°C° 0 mm 4 mps 737 mmHg 90%
    10:00 +5°C° 0 mm 4 mps 737 mmHg 88%
    11:00 +5°C° 0 mm 4 mps 737 mmHg 86%
    12:00 +6°C° 0 mm 4 mps 737 mmHg 84%
    13:00 +5°C° 0 mm 4 mps 737 mmHg 84%
    14:00 +5°C° 0 mm 4 mps 737 mmHg 84%
    15:00 +5°C° 0 mm 4 mps 737 mmHg 84%
    16:00 +5°C° 0 mm 5 mps 736 mmHg 85%
    17:00 +3°C° 0 mm 5 mps 736 mmHg 86%
    18:00 +3°C° 0 mm 5 mps 736 mmHg 87%
    19:00 +3°C° 0 mm 5 mps 736 mmHg 87%
    20:00 +3°C° 0 mm 6 mps 736 mmHg 87%
    21:00 +3°C° 0 mm 6 mps 736 mmHg 87%
    22:00 +3°C° 0.1 mm 6 mps 736 mmHg 88%
    23:00 +3°C° 0.1 mm 5 mps 736 mmHg 89%

    Tomorrow, 20 December, Thursday

    Time Temperature Precipitation Wind Pressure Humidity
    00:00 +3°C° 0.1 mm 5 mps 736 mmHg 89%
    01:00 +3°C° 0 mm 5 mps 735 mmHg 89%
    02:00 +3°C° 0 mm 5 mps 735 mmHg 89%
    03:00 +3°C° 0 mm 5 mps 735 mmHg 89%
    04:00 +3°C° 0.1 mm 5 mps 735 mmHg 89%
    05:00 +3°C° 0.1 mm 5 mps 735 mmHg 89%
    06:00 +3°C° 0.1 mm 5 mps 735 mmHg 89%
    07:00 +4°C° 0.2 mm 6 mps 735 mmHg 88%
    08:00 +4°C° 0.2 mm 6 mps 735 mmHg 87%
    09:00 +4°C° 0.2 mm 6 mps 736 mmHg 86%
    10:00 +4°C° 0.2 mm 6 mps 736 mmHg 84%
    11:00 +5°C° 0.2 mm 6 mps 736 mmHg 82%
    12:00 +5°C° 0.2 mm 6 mps 736 mmHg 79%
    13:00 +5°C° 0.1 mm 6 mps 736 mmHg 80%
    14:00 +4°C° 0.1 mm 6 mps 736 mmHg 80%
    15:00 +5°C° 0.1 mm 5 mps 736 mmHg 81%
    16:00 +5°C° 0 mm 5 mps 736 mmHg 83%
    17:00 +3°C° 0 mm 5 mps 737 mmHg 84%
    18:00 +3°C° 0 mm 5 mps 737 mmHg 86%
    19:00 +3°C° 0 mm 5 mps 737 mmHg 86%
    20:00 +3°C° 0 mm 5 mps 737 mmHg 87%
    21:00 +3°C° 0 mm 5 mps 737 mmHg 87%
    22:00 +3°C° 0 mm 5 mps 736 mmHg 88%
    23:00 +3°C° 0 mm 5 mps 736 mmHg 88%

    Day after tomorrow, 21 December, Friday

    Time Temperature Precipitation Wind Pressure Humidity
    00:00 +3°C° 0 mm 5 mps 736 mmHg 89%
    01:00 +4°C° 0 mm 4 mps 736 mmHg 89%
    02:00 +4°C° 0 mm 4 mps 735 mmHg 90%
    03:00 +3°C° 0 mm 4 mps 734 mmHg 91%
    04:00 +3°C° 0.2 mm 4 mps 734 mmHg 91%
    05:00 +3°C° 0.2 mm 3 mps 733 mmHg 92%
    06:00 +3°C° 0.2 mm 3 mps 732 mmHg 93%
    07:00 +3°C° 0.4 mm 3 mps 732 mmHg 93%
    08:00 +3°C° 0.4 mm 3 mps 732 mmHg 93%
    09:00 +4°C° 0.4 mm 2 mps 731 mmHg 93%
    10:00 +5°C° 0.3 mm 2 mps 732 mmHg 92%
    11:00 +4°C° 0.3 mm 3 mps 732 mmHg 92%
    12:00 +5°C° 0.3 mm 3 mps 732 mmHg 91%
    13:00 +5°C° 0.2 mm 3 mps 732 mmHg 90%
    14:00 +5°C° 0.2 mm 4 mps 733 mmHg 88%
    15:00 +5°C° 0.2 mm 4 mps 733 mmHg 87%
    16:00 +5°C° 0 mm 5 mps 734 mmHg 85%
    17:00 +4°C° 0 mm 6 mps 734 mmHg 83%
    18:00 +5°C° 0 mm 6 mps 735 mmHg 81%
    19:00 +4°C° 0 mm 6 mps 735 mmHg 81%
    20:00 +4°C° 0 mm 6 mps 735 mmHg 81%
    21:00 +4°C° 0 mm 7 mps 735 mmHg 81%
    22:00 +4°C° 0 mm 7 mps 735 mmHg 81%
    23:00 +4°C° 0 mm 7 mps 735 mmHg 82%

    22 December, Saturday

    Time Temperature Precipitation Wind Pressure Humidity
    00:00 +4°C° 0 mm 7 mps 736 mmHg 82%
    01:00 +4°C° 0 mm 8 mps 736 mmHg 81%
    02:00 +4°C° 0 mm 8 mps 737 mmHg 81%
    03:00 +3°C° 0 mm 9 mps 737 mmHg 80%
    04:00 +3°C° 0 mm 9 mps 738 mmHg 79%
    05:00 +3°C° 0 mm 9 mps 738 mmHg 78%
    06:00 +3°C° 0 mm 9 mps 739 mmHg 77%
    07:00 +3°C° 0.1 mm 9 mps 739 mmHg 77%
    08:00 +3°C° 0.1 mm 9 mps 740 mmHg 78%
    09:00 +4°C° 0.1 mm 8 mps 741 mmHg 78%
    10:00 +3°C° 0.1 mm 9 mps 741 mmHg 76%
    11:00 +3°C° 0.1 mm 9 mps 742 mmHg 75%
    12:00 +5°C° 0.1 mm 9 mps 742 mmHg 74%
    13:00 +5°C° 0.1 mm 9 mps 743 mmHg 74%
    14:00 +4°C° 0.1 mm 8 mps 743 mmHg 74%
    15:00 +4°C° 0.1 mm 8 mps 744 mmHg 74%
    16:00 +4°C° 0 mm 8 mps 744 mmHg 76%
    17:00 +4°C° 0 mm 8 mps 744 mmHg 77%
    18:00 +2°C° 0 mm 8 mps 745 mmHg 78%
    19:00 +2°C° 0 mm 8 mps 745 mmHg 78%
    20:00 +2°C° 0 mm 8 mps 746 mmHg 79%
    21:00 +4°C° 0 mm 8 mps 746 mmHg 80%
    22:00 +4°C° 0 mm 7 mps 747 mmHg 81%
    23:00 +4°C° 0 mm 7 mps 747 mmHg 82%

    23 December, Sunday

    Time Temperature Precipitation Wind Pressure Humidity
    00:00 +4°C° 0 mm 7 mps 747 mmHg 84%
    01:00 +4°C° 0 mm 6 mps 748 mmHg 85%
    02:00 +3°C° 0 mm 6 mps 748 mmHg 86%
    03:00 +3°C° 0 mm 6 mps 749 mmHg 88%
    04:00 +3°C° 0 mm 6 mps 749 mmHg 88%
    05:00 +3°C° 0 mm 6 mps 749 mmHg 88%
    06:00 +3°C° 0 mm 6 mps 750 mmHg 88%
    07:00 +3°C° 0 mm 6 mps 750 mmHg 88%
    08:00 +3°C° 0 mm 6 mps 751 mmHg 88%
    09:00 +3°C° 0 mm 6 mps 752 mmHg 88%
    10:00 +3°C° 0 mm 6 mps 752 mmHg 85%
    11:00 +4°C° 0 mm 6 mps 753 mmHg 83%
    12:00 +4°C° 0 mm 6 mps 753 mmHg 80%
    13:00 +4°C° 0 mm 6 mps 753 mmHg 82%
    14:00 +5°C° 0 mm 5 mps 754 mmHg 83%
    15:00 +5°C° 0 mm 5 mps 754 mmHg 84%
    16:00 +4°C° 0 mm 4 mps 755 mmHg 86%
    17:00 +4°C° 0 mm 4 mps 755 mmHg 89%
    18:00 +3°C° 0 mm 4 mps 756 mmHg 91%
    19:00 +3°C° 0 mm 3 mps 756 mmHg 91%
    20:00 +3°C° 0 mm 3 mps 757 mmHg 91%
    21:00 +3°C° 0 mm 2 mps 758 mmHg 92%
    22:00 +3°C° 0 mm 2 mps 758 mmHg 92%
    23:00 +3°C° 0 mm 2 mps 758 mmHg 92%

    24 December, Monday

    Time Temperature Precipitation Wind Pressure Humidity
    00:00 +4°C° 0 mm 1 mps 758 mmHg 92%
    01:00 +4°C° 0 mm 1 mps 759 mmHg 91%
    02:00 +4°C° 0 mm 1 mps 759 mmHg 91%
    03:00 +3°C° 0 mm 1 mps 759 mmHg 90%
    04:00 +4°C° 0 mm 1 mps 759 mmHg 89%
    05:00 +3°C° 0 mm 2 mps 759 mmHg 89%
    06:00 +3°C° 0 mm 2 mps 759 mmHg 88%
    07:00 +3°C° 0 mm 2 mps 759 mmHg 87%
    08:00 +3°C° 0 mm 2 mps 759 mmHg 86%
    09:00 +3°C° 0 mm 2 mps 759 mmHg 86%
    10:00 +3°C° 0 mm 2 mps 759 mmHg 83%
    11:00 +3°C° 0 mm 3 mps 759 mmHg 81%
    12:00 +4°C° 0 mm 3 mps 759 mmHg 78%
    13:00 +4°C° 0 mm 3 mps 759 mmHg 79%
    14:00 +4°C° 0 mm 3 mps 758 mmHg 79%
    15:00 +5°C° 0 mm 2 mps 758 mmHg 80%
    16:00 +5°C° 0 mm 2 mps 758 mmHg 82%
    17:00 +4°C° 0 mm 2 mps 758 mmHg 84%
    18:00 +4°C° 0 mm 2 mps 757 mmHg 87%
    19:00 +4°C° 0 mm 2 mps 757 mmHg 88%
    20:00 +4°C° 0 mm 2 mps 757 mmHg 89%
    21:00 +4°C° 0 mm 2 mps 757 mmHg 91%
    22:00 +4°C° 0 mm 2 mps 757 mmHg 91%
    23:00 +5°C° 0 mm 2 mps 757 mmHg 91%
    Show more